#timestamp,LO_Frequency,Hit,StdDev 
1620136815.3,286046999.0,N
1620136835.2,286046999.4,N
1620136855.0,286047000.2,N
1620136855.9,286047000.2,N
1620136875.7,286046999.5,N
1620136895.6,286046997.1,Y
1620136915.4,286046996.8,P
1620136935.3,286046997.1,N
1620136955.1,286046995.1,P
1620136956.0,286046995.1,Y
1620136975.8,286046999.4,P
1620136995.7,286046998.9,N
1620137015.5,286046998.9,N
1620137035.3,286046999.1,N
1620137055.2,286046998.9,N
1620137075.9,286046997.0,Y
1620137095.7,286046997.2,P
1620137115.6,286046997.1,P
1620137135.4,286046997.1,P
1620137155.2,286046997.8,Y
1620137175.1,286046998.3,P
1620137176.0,286046998.3,P
1620137195.8,286046998.6,P
1620137245.6,286046996.8,E
1620137255.6,286047000.7,N
1620137275.4,286047002.7,P
1620137295.2,286047001.7,N
1620137315.1,286047004.3,Y
1620137316.0,286047004.3,P
1620137335.8,286047000.3,N
1620137355.6,286047001.0,N
1620137375.5,286047000.2,N
1620137395.3,286046991.7,Y
1620137415.1,286046993.7,P
1620137435.9,286046988.9,N
1620137455.7,286046987.9,N
1620137475.5,286046986.8,N
1620137495.4,286046984.2,N
1620137515.2,286046986.8,N
1620137535.0,286046984.4,N
1620137535.9,286046984.4,N
1620137555.8,286046986.2,N
1620137575.6,286046987.0,N
1620137595.4,286046987.4,N
1620137615.3,286046989.9,N
1620137635.1,286046988.7,N
1620137636.0,286046988.7,N
1620137655.8,286046980.2,Y
1620137675.7,286047005.9,P
1620137695.5,286047000.7,N
1620137715.3,286046981.9,N
1620137735.2,286046995.4,N
1620137755.9,286047003.4,N
1620137775.7,286047013.1,N
1620137795.6,286047021.8,N
1620137815.4,286047025.8,N
1620137835.2,286047029.8,N
1620137855.0,286047031.7,N
1620137856.0,286047031.7,N
1620137875.8,286047037.6,N
1620137895.6,286047038.3,N
1620137915.4,286047040.2,N
1620137935.3,286047040.1,N
1620137955.1,286047042.5,N
1620137975.8,286047044.3,N
1620137995.7,286047044.1,N
1620138015.5,286047044.9,N
1620138035.3,286047047.6,N
1620138055.2,286047047.6,N
1620138075.0,286047047.5,N
1620138075.9,286047047.5,N
1620138095.7,286047045.2,N
1620138115.6,286047048.8,N
1620138135.4,286047046.6,N
1620138155.2,286047049.1,N
1620138175.1,286047048.0,N
1620138176.0,286047048.0,N
1620138195.8,286047046.7,N
1620138215.6,286047048.2,N
1620138235.5,286047047.7,N
1620138255.3,286047048.4,N
1620138275.1,286047048.8,Y
1620138295.9,286047011.5,P
1620138315.7,286047011.4,N
1620138335.5,286047009.9,N
1620138355.4,286047013.0,N
1620138375.2,286047014.2,N
1620138395.0,286047014.2,N
1620138395.9,286047014.2,N
1620138415.8,286047011.3,N
1620138435.6,286047011.8,N
1620138455.4,286047012.4,N
1620138475.3,286047007.7,N
1620138495.1,286047010.2,N
1620138515.8,286047016.2,N
1620138535.7,286047016.4,N
1620138555.5,286047013.2,N
1620138575.3,286047014.3,N
1620138595.2,286047009.9,N
1620138615.9,286047012.0,N
1620138635.7,286047012.3,N
1620138655.6,286047013.2,N
1620138675.4,286047017.7,Y
1620138695.2,286047004.3,P
1620138715.1,286046999.7,N
1620138716.0,286046999.7,N
1620138735.8,286047002.1,N
1620138755.6,286047008.2,N
1620138775.5,286047002.1,N
1620138795.3,286047000.3,N
1620138815.1,286046999.1,N
1620138835.9,286046999.9,N
1620138855.7,286047002.6,N
1620138875.5,286047001.3,N
1620138895.3,286047006.2,N
1620138915.2,286047008.4,N
1620138935.0,286047005.7,N
1620138935.9,286047005.7,N
1620138955.7,286047000.8,N
1620138975.6,286047002.2,N
1620138995.4,286047004.1,N
1620139015.2,286047010.6,N
1620139035.1,286047010.6,N
1620139036.0,286047010.6,N
1620139055.8,286047004.7,N
1620139075.6,286047003.5,N
1620139095.5,286047005.4,N
1620139115.3,286047009.0,N
1620139135.1,286047007.3,N
1620139155.9,286047006.8,N
1620139175.7,286047010.3,N
1620139195.5,286047009.1,N
1620139215.4,286047010.5,N
1620139235.2,286047006.3,N
1620139255.0,286047007.1,N
1620139255.9,286047007.1,N
1620139275.8,286047004.6,N
1620139295.6,286047009.2,N
1620139315.4,286047008.0,N
1620139335.3,286047006.2,N
1620139355.1,286047008.8,N
1620139375.8,286047011.9,Y
1620139395.7,286047006.0,P
1620139415.5,286047005.0,P
1620139435.3,286047009.0,P
1620139455.2,286047009.2,Y
1620139475.9,286047001.8,P
1620139495.7,286047000.7,N
1620139515.6,286046999.0,N
1620139535.4,286047001.5,N
1620139555.2,286046999.8,N
1620139575.1,286047003.8,N
1620139576.0,286047003.8,N
1620139595.8,286047006.5,N
1620139615.6,286047001.3,N
1620139635.5,286047005.7,N
1620139655.3,286047004.8,N
1620139675.1,286047006.9,N
1620139695.9,286047007.5,N
1620139715.7,286047002.9,N
1620139735.5,286047003.5,N
1620139755.4,286047004.7,N
1620139775.2,286047008.6,Y
1620139795.0,286047003.5,P
1620139795.9,286047003.5,P
1620139815.8,286047004.6,P
1620139835.6,286047004.7,Y
1620139855.4,286047001.4,P
1620139875.3,286047001.5,N
1620139895.1,286047003.0,N
1620139915.8,286047004.0,Y
1620139935.7,286047004.2,P
1620139955.5,286047002.5,N
1620139975.3,286047005.0,P
1620139995.2,286047002.7,N
1620140015.0,286047001.7,N
1620140015.9,286047001.7,N
1620140035.7,286047000.7,N
1620140055.6,286047002.3,N
1620140075.4,286047004.4,Y
1620140095.2,286046999.6,P
1620140115.1,286046997.3,N
1620140116.0,286046997.3,N
1620140135.8,286047000.5,N
1620140155.6,286047002.0,N
1620140175.5,286046998.2,N
1620140195.3,286047001.0,N
1620140215.1,286047001.0,N
1620140235.9,286047002.8,N
1620140255.7,286047002.9,N
1620140275.5,286047001.9,N
1620140295.4,286047000.9,N
1620140315.2,286047002.6,N
1620140335.0,286046998.6,N
1620140335.9,286046998.6,N
1620140355.8,286046999.8,N
1620140375.6,286047002.0,N
1620140395.4,286047002.7,N
